{"data":{"norad_id":55824,"intl_designator":"2023-029AE","name":"ONEWEB-0664","alt_names":[],"object_type":"PAYLOAD","status":"ACTIVE","operator":null,"country":"UK","launch_date":"2023-03-09","launch_site_code":"AFETR","launch_vehicle":null,"mission":null,"orbit_class":"UNKNOWN","rcs_meters":null,"size_class":null,"mass_kg":null,"dimensions":null,"purposes":["comms"],"wikipedia_slug":null,"has_3d_model":false,"image_url":null,"decayed_at":null,"tle_current":{"epoch":"2026-09-19T23:06:17.884800Z","epoch_age_seconds":64642,"freshness":"FRESH","line1":"1 55824U 23029AE  26262.96270700  .00000011  00000+0 -56288-5 0  9995","line2":"2 55824  87.9134 255.5659 0002321  86.3799 273.7599 13.20774157173656","mean_motion":13.20774157,"eccentricity":0.0002321,"inclination_deg":87.9134,"raan_deg":255.5659,"arg_perigee_deg":86.3799,"mean_anomaly_deg":273.7599,"bstar":-5.6288e-6,"rev_number":17365,"period_min":109.02696667467,"perigee_km":1180.0097748878,"apogee_km":1183.5190811307,"semimajor_km":7559.9014280092,"source":"CELESTRAK","updated_at":"2026-09-20T09:00:44.764985Z"}}}